Meteo Giornale » Osservazioni meteo Svezia » Orebro Private
ore: 17:20 - Osservazioni Meteo Orebro Private
Lat. 59° 14' N Lon. 15° 3' E Alt. 57 metri s.l.m.
22 °C
Nuvoloso
Temp. 24 Ore
7 °C
22 °C
Nord
3.7 Km/h
Dew point 13 °C
Umidità 56 %
Visibilità 10 Km
Il sole sorge alle ore 05:57
Il sole tramonta alle ore 20:02
| Data e Ora | Cielo e Fenomeni | T °C | DP °C | Um. % | Pres. hPa | Vis. km | Vento km/h | |
|---|---|---|---|---|---|---|---|---|
| Oggi h: 17:20 | Nuvoloso | 22 | 13 | 56 | 1008 | 10 | N 3.7 | |
| Oggi h: 16:50 | Nuvoloso | 21 | 13 | 60 | 1008 | 10 | N 1.8 | |
| Oggi h: 16:20 | Nuvoloso | 21 | 13 | 60 | 1008 | 10 | N 3.7 | |
| Oggi h: 15:50 | Poco Nuvoloso | 21 | 13 | 60 | 1008 | 10 | N 0 | |
| Oggi h: 15:20 | Poco Nuvoloso | 21 | 14 | 64 | 1008 | 10 | N 1.8 | |
| Oggi h: 14:50 | Nuvoloso | 20 | 13 | 64 | 1008 | 10 | N 3.7 | |
| Oggi h: 14:20 | Nuvoloso | 20 | 13 | 64 | 1008 | 10 | N 3.7 | |
| Oggi h: 13:50 | Pioggia nelle vicinanze | 20 | 14 | 68 | 1008 | 10 | N 5.5 | |
| Oggi h: 13:20 | Nuvoloso | 19 | 14 | 72 | 1008 | 10 | N/NO 7.4 | |
| Oggi h: 12:50 | Nuvoloso | 21 | 13 | 60 | 1008 | 10 | N 0 | |
| Oggi h: 12:20 | Nuvoloso | 19 | 13 | 68 | 1008 | 10 | N 3.7 | |
| Oggi h: 11:50 | Nuvoloso | 20 | 14 | 68 | 1008 | 10 | N 3.7 | |
| Oggi h: 11:20 | Poco Nuvoloso | 19 | 14 | 72 | 1008 | 10 | N 3.7 | |
| Oggi h: 10:50 | Sereno | 18 | 13 | 72 | 1008 | 10 | N 3.7 | |
| Oggi h: 10:20 | Sereno | 17 | 13 | 77 | 1008 | 10 | N 3.7 | |
| Oggi h: 09:50 | Sereno | 16 | 13 | 82 | 1007 | 10 | N 3.7 | |
| Oggi h: 09:20 | Sereno | 16 | 13 | 82 | 1007 | 10 | N 0 | |
| Oggi h: 08:50 | Sereno | 14 | 12 | 87 | 1007 | 10 | N 1.8 | |
| Oggi h: 08:20 | Sereno | 12 | 11 | 93 | 1007 | 10 | N 1.8 | |
| Oggi h: 07:50 | Sereno | 11 | 10 | 93 | 1007 | 10 | N 1.8 | |
| Oggi h: 07:20 | Sereno | 9 | 8 | 93 | 1007 | 10 | N 3.7 | |
| Oggi h: 06:50 | Banco di nebbia | 8 | 8 | 100 | 1007 | 10 | N 3.7 | |
| Oggi h: 06:20 | Nebbia a tratti | 8 | 7 | 93 | 1007 | 2 | N 3.7 | |
| Oggi h: 05:50 | Banco di nebbia | 9 | 8 | 93 | 1007 | 10 | N 3.7 | |
| Oggi h: 05:20 | Sereno | 8 | 7 | 93 | 1007 | 0.25 | N 3.7 | |
| Oggi h: 04:50 | Nebbia | 7 | 7 | 100 | 1007 | 7 | N 5.5 | |
| Oggi h: 04:20 | Sereno | 9 | 8 | 93 | 1006 | 0.35 | N 0 | |
| Oggi h: 03:50 | Sereno | 9 | 8 | 93 | 1006 | 4 | N 1.8 | |
| Oggi h: 03:20 | Nebbia | 9 | 9 | 100 | 1006 | 0.25 | N 3.7 | |
| Oggi h: 02:50 | Foschia | 10 | 9 | 93 | 1006 | 0.4 | N 1.8 | |
| Oggi h: 02:20 | Foschia | 10 | 9 | 93 | 1006 | 0.3 | N 0 | |
| Oggi h: 01:50 | Sereno | 10 | 10 | 100 | 1006 | 0.45 | N 0 | |
| Oggi h: 01:20 | Molto Nuvoloso | 10 | 10 | 100 | 1006 | 4 | N 3.7 | |
| Oggi h: 00:50 | Nuvoloso | 11 | 10 | 93 | 1006 | 8 | N 0 | |
| Oggi h: 00:20 | Molto Nuvoloso | 11 | 10 | 93 | 1006 | 3 | N 0 | |
| Ieri h: 23:50 | Foschia | 11 | 11 | 100 | 1006 | 0.5 | N 0 | |
| Ieri h: 23:20 | Nuvoloso | 11 | 11 | 100 | 1006 | 10 | N 0 | |
| Ieri h: 22:50 | Sereno | 11 | 10 | 93 | 1006 | 10 | N 5.5 | |
| Ieri h: 22:20 | Foschia | 11 | 10 | 93 | 1006 | 4 | N 0 | |
| Ieri h: 21:50 | Sereno | 12 | 11 | 93 | 1006 | 10 | N 1.8 | |
| Ieri h: 21:20 | Sereno | 12 | 11 | 93 | 1006 | 10 | N 1.8 | |
| Ieri h: 20:50 | Sereno | 14 | 12 | 87 | 1006 | 10 | N 3.7 | |
| Ieri h: 20:20 | Sereno | 14 | 12 | 87 | 1006 | 10 | N 5.5 | |
| Ieri h: 19:50 | Sereno | 16 | 12 | 77 | 1006 | 10 | N 5.5 | |
| Ieri h: 19:20 | Sereno | 17 | 12 | 72 | 1006 | 10 | SO 7.4 | |
| Ieri h: 18:50 | Sereno | 18 | 11 | 63 | 1006 | 10 | SO 11.1 | |
| Ieri h: 18:20 | Sereno | 19 | 12 | 63 | 1006 | 10 | O/SO 13 | |
| Ieri h: 17:50 | Sereno | 18 | 12 | 67 | 1006 | 10 | O 7.4 | |



